ONEWEB-0061, 45428

Orbit data source: Space-Track

ONEWEB-0061, 45428 is a payload satellite owned by One Web (UK) in LEO that was launched on Sat, 21 Mar 2020 UTC via a SOYUZ-2-1B launch vehicle from the Tyuratam Missile And Space Complex (TTMTR). Payload-class satellites include a variety of spacecraft equipped with specific instruments for various scientific and technological missions. These include communications satellites like Starlink; space stations such as the ISS; scientific satellites like the Hubble; Earth observation satellites from companies like Planet Labs, Umbra, and HawkEye 360; GPS; miniature CubeSats for education and research; and military/defense satellites.

Loading next visibility...
Identifier
45428, 2020-020E
Orbit
LEO
Last TLE update
19 hours ago
Origin
Manufacturer
One Web
Mission
Operational Commercial Communications
Bus & Motor
ARROW, Unknown motor
Mass
148 kg wet, ~140 kg dry
Launch date (UTC)
2020-03-21 (5 years ago)
Launch vehicle
SOYUZ-2-1B
Launch site
Tyuratam Missile And Space Complex (TTMTR)
Object type
Payload
Rocket body
Debris
Shape & HBR
Trap Box + 2 Pan, 5 m
Radar Cross Section
2.957 m², Large (>1 m²)

Expand to show TLE details & history

TLE from 19 hours ago
0 ONEWEB-0061
1 45428U 20020E   25128.49052422 -.00000535  00000-0 -15468-2 0  9994
2 45428  87.8810 101.7108 0001954  83.9415 276.1936 13.11416684249581
Epoch: 2025-05-08T11:46Z
Definitive object data (Epoch: 2025-05-08T11:46:21.292Z)
Latitude
0.00002°
Longitude
58.56182°
Altitude
1,220.413 km
Speed
7.244 km/s
True Right ascension
06h 46m 50s
True Declination
0° 00' 00"
Sunlit
Object was in daylight at TLE epoch
Visualization TLE readout
Latitude
86.91164°
Longitude
101.43041°
Altitude
1,230.065 km
Speed
7.247 km/s
Apparent Right ascension
02h 59m 35s
Apparent Declination
36° 03' 50"
Sunlit
Object is in daylight
Visualization observer readout
Local Sidereal Time
14:40:36
Azimuth
356.05° N
Elevation
-13.895°
Doppler factor
1
Orbital elements
Apogee altitude
1,216.286 km
Perigee altitude
1,213.318 km
Semi-major axis
7,592.939 km
Eccentricity
0.0001954
Inclination
87.881°
RAAN
101.7108°
Arg. of periapsis
83.9415°
True anomaly
276.17134°
Mean anomaly
276.1936°
Eccentric anomaly
276.18247°
Mean motion
3.28041 °/min
BSTAR
-0.0015468
Orbital period
109.74 mins
Loading maneuver chart data...
Loading SW <> Apogee altitude chart data...
Loading historical data...
Loading historical data...
Loading historical data...
Loading historical data...
Loading historical data...
Loading historical data...
Loading historical data...

ONEWEB-0061 Visibility forecast

Observer location: undefined°, undefined°

Span
Click to sort rows by Start time (UTC) header in descending order
Start Az.
Max El. time (UTC)
Max El. Az.
Max El.
End time (UTC)
End Az.
6 mins2025-05-09 08:33:45.730Z47.47° ENE2025-05-09 08:36:45.730Z73.453° E13.939°2025-05-09 08:39:45.730Z98.8° ESE
13 mins2025-05-09 10:21:45.730Z0.406° NNE2025-05-09 10:27:45.730Z158.668° S44.807°2025-05-09 10:34:45.730Z180.361° SSW
6 mins2025-05-09 12:13:45.730Z311.013° NW2025-05-09 12:16:45.730Z283.988° WNW15.024°2025-05-09 12:19:45.730Z258.549° W
6 mins2025-05-09 20:54:45.730Z93.636° ESE2025-05-09 20:56:45.730Z75.386° E15.778°2025-05-09 21:00:45.730Z40.337° NE
13 mins2025-05-09 22:39:45.730Z181.75° SSW2025-05-09 22:45:45.730Z230.771° WSW44.766°2025-05-09 22:52:45.730Z359.181° N
5 mins2025-05-10 00:34:45.730Z270.119° WNW2025-05-10 00:36:45.730Z287.268° WNW13.248°2025-05-10 00:39:45.730Z312.728° NW
|